Погода в Костроме

Погода в Костроме : погода сейчас, прогноз погоды и архив. Всё, что Вы хотите узнать о погоде в Костроме!

Хотите узнать прогноз погоды в Костроме? Тогда Вам сюда: Погода в Костроме

Поиск расширенной информации на нашем сайте:

Другие новости

Новости СМИ2

Главная страница сайта

Новости сайта

03.07.2017

Напоминаем, что на нашем специализированном сайте Метеоцентр.Азия вы можете получить высокодетализированные автоматические прогнозы погоды по пунктам России, СНГ и мира в авиационном формате (включающие направление и скорость ветра, видимость, явления погоды, количество и форму облачности, нижнюю и верхнюю границу облачности).


Погода в Костроме - сегодня

Время (UTC), дата Ветер
(°,м/с) 
Видим.   Явления Облачность Т
(°С)
Тd
(°С)
f(%) Тe
(°С)
Pmin
(гПа)
dP
(гПа)
Po
(мм)
O2
(г/м3)
Тmin Tmax R s Состояние
почвы
09 16.08.17 050 (СВ) 30000 м    6/4 600 м верхняя 
[Cu med, cong|Ci fib]
+21.6 +8.7 44 +22  1030.1  761  283           
12 16.08.17 160 (Ю) 30000 м    4/4 600 м 
[Cu hum]
+22.4 +8.5 41 +22  1029  -1  761  282           
15 16.08.17 180 (Ю) 30000 м    ясно 
+21.6 +9.4 46 +22  1028.2  -0.9  760  282    +23.5       
18 16.08.17 190 (Ю) 50000 м    ясно 
+11 +9.6 91 +12  1028.9  0.1  760  293           
21 16.08.17 170 (Ю) 50000 м    ясно 
+13 +9 77 +13  1028.8  0.1  760  291           
00 17.08.17 220 (ЮЗ) 50000 м    ясно 
+12.2 +10.2 88 +13  1029.3  0.4  760  291           
03 17.08.17 210 (ЮЗ) 30000 м    9/0 средняя 
[Ac trans]
+13.2 +10.3 83 +14  1029.3  0.1  761  290  +9.5        влажная 
06 17.08.17 170 (Ю) 30000 м    1/1 600 м 
[Cu hum]
+18.4 +12.7 69 +24  1029.1  761  285           
09 17.08.17 170 (Ю) 30000 м    3/3 600 м 
[Cu med, cong]
+22.1 +12.7 55 +27  1028.3  -0.5  760  281           
12 17.08.17 180 (Ю) 30000 м    3/3 600 м 
[Cu med, cong]
+23.1 +11.8 49 +26  1027.4  -0.9  759  280           
15 17.08.17 170 (Ю) 30000 м    1/1 600 м 
[Cu med, cong]
+21.8 +11.7 53 +25  1026.6  -0.9  759  281    +23.7       
18 17.08.17 170 (Ю) 50000 м    1/1 600 м 
[Cu hum]
+16.7 +11.1 70 +19  1026.9  0.1  759  286           
21 17.08.17 190 (Ю) 50000 м    6/0 средняя 
[Ac cast]
+14.6 +11.3 81 +18  1027  759  288           
00 18.08.17 210 (ЮЗ) 50000 м    10/0 средняя 
[Ac cast]
+13.3 +11.4 88 +16  1026.8  -0.3  759  289           
03 18.08.17 210 (ЮЗ) 30000 м    8/0 средняя 
[Ac cast]
+13 +10.9 87 +15  1026.8  759  290  +12.8        влажная 
06 18.08.17 210 (ЮЗ) 30000 м    5/0 средняя 
[Ac As]
+19.4 +13.6 69 +26  1026.2  -0.2  758  283  +12.7         
09 18.08.17 200 (Ю) 30000 м    8/1 600 м средняя, верхняя 
[Cu med, cong|Ac As|Cc]
+23.3 +10.8 45 +25  1025.8  -0.2  758  280           
12 18.08.17 200 (Ю) 30000 м    10/3 600 м средняя 
[Cu med, cong|Ac As]
+23.4 +12.8 51 +28  1024.5  -1.3  757  279           
15 18.08.17 170 (Ю) 30000 м    10/3 600 м средняя, верхняя 
[Cu med, cong|Ac As|Cs]
+22 +13.8 60 +28  1023.2  -1.3  756  279    +24.1       
18 18.08.17 190 (Ю) 50000 м    8/0 средняя, верхняя 
[Ac As|Cs]
+19 +14.5 75 +27  1023  -0.4  756  282           
21 18.08.17 210 (ЮЗ) 50000 м    5/0 средняя 
[Ac As]
+16.9 +13.6 81 +23  1022.6  -0.5  756  284           
00 19.08.17 200 (Ю) 50000 м    8/0 средняя, верхняя 
[Ac As|Cs]
+16.4 +13.6 83 +22  1021.9  -0.6  755  284           
03 19.08.17 210 (ЮЗ) 30000 м    10/0 средняя, верхняя 
[Ac As|Cs]
+16.6 +13.5 82 +23  1021.9  755  284  +15.8        влажная 
06 19.08.17 230 (ЮЗ) 30000 м    10/0 верхняя 
[Cs]
+21 +14.9 68 +29  1022  0.3  755  280           
09 19.08.17 200 (Ю) 30000 м    10/0 верхняя 
[Cc]
+25.4 +16 56 +36  1021.4  -0.4  755  275           
Время (UTC), дата Ветер
(°,м/с) 
Видим.   Явления Облачность Т
(°С)
Тd
(°С)
f(%) Тe
(°С)
Pmin
(гПа)
dP
(гПа)
Po
(мм)
O2
(г/м3)
Тmin Tmax R s Состояние
почвы

Для получения пояснительной информации подведите курсор к названию столбца.

ПОГОДА в Костроме - архив

Всё, что Вы хотите узнать о погоде в Костроме - удобно и подробно!

Выберите нужную дату (начиная с 1 января 2015* года) и нажмите кнопку "Найти".
Будут отображены архивные сводки погоды по пункту Кострома, начиная с указанной даты.


Отображать данные в формате CSV (для использования в таблицах Excel)


Внимание! Наш архив погоды предназначен исключительно для личного некоммерческого использования в познавательных целях. Если Вам необходимы официальные справки о состоянии погоды (для производственных, юридических, коммерческих и т.п. целей), обращайтесь в органы Росгидромета.

*Примечание: данная дата относится к архиву по метеостанциям СССР (Россия, СНГ, Балтия).
Архив по метеостанциям Зарубежной Европы и Азии (кроме Китая) хранится 10 дней, по другим регионам земного шара (Китай, Африка, Америка, Австралия, Океания) - 1 день.

Кострома - район местоположения метеостанции


Название, широта, долгота, высота метеостанции:
Кострома 57.7°ш. 40.8°д. 126 м над ур. моря [Российская Федерация]

Дополнительная информация

В oтличие oт бoльшинства пoгoдных сайтoв мы публикуем пoдрoбную метеoинфoрмацию в детальнoм прoфессиoнальнoм фoрмате.

Характеристики температуры и влажнoсти вoздуха измеряются на высoте 2 м в тени вдали oт зданий и деревьев.
Скoрoсть ветра измеряется на высoте 10 м (на урoвне рoста челoвека скoрoсть ветра ниже в 1.5-2 раза). Если метеoстанция нахoдится в гoрoде или в лесу, тo скoрoсть ветра занижена на 2-4 м/с пo сравнению с oткрытым местoм. Скoрoсть ветра над акватoриями крупных рек и oзёр, а также на вершинах хoлмoв на 2-5 м/с выше, чем в oбычных услoвиях.
Атмoсфернoе давление в разных тoчках местнoсти мoжет значительнo oтличаться oт давления на метеoстанции, в зависимoсти oт услoвий рельефа (при пoдъёме на 10 м давление пoнижается примернo на 1 мм рт.ст.).